Time,TemperatureF,DewpointF,PressureIn,WindDirection,WindDirectionDegrees,WindSpeedMPH,WindSpeedGustMPH,Humidity,HourlyPrecipIn,Conditions,Clouds,dailyrainin,SolarRadiationWatts/m^2,SoftwareType,DateUTC
2013-12-12 08:16:00,27.9,21.6,30.56,ENE,68,1.2,1.2,77,0.00,OVC,,0.00,0.0,WeatherDisplay:10.37,2013-12-12 07:16:00,
2013-12-12 08:17:00,33.1,26.0,30.56,WSW,248,1.2,0.0,75,0.00,OVC,,0.00,13.0,WeatherDisplay:10.37,2013-12-12 07:17:00,
2013-12-12 08:18:00,33.1,26.0,30.53,WSW,248,1.2,0.0,75,0.00,OVC,,0.00,13.5,WeatherDisplay:10.37,2013-12-12 07:18:00,
2013-12-12 08:23:00,33.1,26.0,30.53,ESE,112,0.0,0.0,75,0.00,OVC,,0.00,15.5,WeatherDisplay:10.37,2013-12-12 07:23:00,
2013-12-12 08:28:00,33.1,26.0,30.53,East,90,0.0,0.0,75,0.00,OVC,,0.00,17.3,WeatherDisplay:10.37,2013-12-12 07:28:00,
2013-12-12 08:33:00,33.3,26.2,30.53,East,90,0.0,0.0,75,0.00,OVC,,0.00,19.3,WeatherDisplay:10.37,2013-12-12 07:33:00,
2013-12-12 08:38:00,33.3,26.2,30.53,East,90,0.0,0.0,75,0.00,OVC,,0.00,21.3,WeatherDisplay:10.37,2013-12-12 07:38:00,
2013-12-12 08:43:00,33.3,26.2,30.53,NE,45,0.0,0.0,75,0.00,OVC,,0.00,23.1,WeatherDisplay:10.37,2013-12-12 07:43:00,
2013-12-12 08:48:00,33.3,26.2,30.53,NE,45,0.0,0.0,75,0.00,OVC,,0.00,24.9,WeatherDisplay:10.37,2013-12-12 07:48:00,
2013-12-12 08:53:00,33.3,26.2,30.53,NE,45,0.0,0.0,75,0.00,OVC,,0.00,26.7,WeatherDisplay:10.37,2013-12-12 07:53:00,
2013-12-12 08:58:00,33.4,26.4,30.50,NE,45,0.0,0.0,75,0.00,OVC,,0.00,28.5,WeatherDisplay:10.37,2013-12-12 07:58:00,
2013-12-12 09:03:00,33.4,26.4,30.50,NE,45,0.0,0.0,75,0.00,OVC,,0.00,30.4,WeatherDisplay:10.37,2013-12-12 08:03:00,
2013-12-12 09:08:00,33.6,26.5,30.50,West,270,0.0,0.0,75,0.00,OVC,,0.00,32.0,WeatherDisplay:10.37,2013-12-12 08:08:00,
2013-12-12 09:13:00,33.6,26.5,30.50,West,270,0.0,0.0,75,0.00,OVC,,0.00,33.7,WeatherDisplay:10.37,2013-12-12 08:13:00,
2013-12-12 09:18:00,33.8,26.4,30.50,West,270,0.0,0.0,74,0.00,OVC,,0.00,35.3,WeatherDisplay:10.37,2013-12-12 08:18:00,
2013-12-12 09:23:00,33.8,26.4,30.50,WNW,292,2.4,2.4,74,0.00,OVC,,0.00,37.0,WeatherDisplay:10.37,2013-12-12 08:23:00,
2013-12-12 09:28:00,34.0,26.2,30.50,West,270,0.0,0.0,73,0.00,OVC,,0.00,38.4,WeatherDisplay:10.37,2013-12-12 08:28:00,
2013-12-12 09:33:00,34.0,25.9,30.50,WNW,292,3.5,3.5,72,0.00,OVC,,0.00,40.1,WeatherDisplay:10.37,2013-12-12 08:33:00,
2013-12-12 09:38:00,34.2,26.1,30.50,WNW,292,2.3,2.3,72,0.00,OVC,,0.00,41.6,WeatherDisplay:10.37,2013-12-12 08:38:00,
2013-12-12 09:43:00,34.2,26.1,30.53,SW,225,2.3,2.3,72,0.00,OVC,,0.00,43.1,WeatherDisplay:10.37,2013-12-12 08:43:00,
2013-12-12 09:48:00,34.2,26.4,30.53,WSW,248,2.3,2.6,73,0.00,OVC,,0.00,44.4,WeatherDisplay:10.37,2013-12-12 08:48:00,
2013-12-12 09:53:00,34.3,27.2,30.53,West,270,1.2,1.4,75,0.00,OVC,,0.00,45.7,WeatherDisplay:10.37,2013-12-12 08:53:00,
2013-12-12 09:58:00,34.3,27.2,30.50,NNW,338,2.4,2.4,75,0.00,OVC,,0.00,47.0,WeatherDisplay:10.37,2013-12-12 08:58:00,
2013-12-12 10:03:00,34.3,27.6,30.50,NNW,338,2.3,2.3,76,0.00,OVC,,0.00,48.3,WeatherDisplay:10.37,2013-12-12 09:03:00,
2013-12-12 10:08:00,34.3,27.9,30.50,WSW,248,4.6,4.6,77,0.00,OVC,,0.00,49.5,WeatherDisplay:10.37,2013-12-12 09:08:00,
2013-12-12 10:13:00,34.3,28.2,30.50,West,270,3.5,3.5,78,0.00,OVC,,0.00,50.7,WeatherDisplay:10.37,2013-12-12 09:13:00,
2013-12-12 10:18:00,34.3,28.5,30.50,West,270,2.4,2.4,79,0.00,OVC,,0.00,51.8,WeatherDisplay:10.37,2013-12-12 09:18:00,
2013-12-12 10:23:00,34.3,28.5,30.50,WNW,292,1.2,0.0,79,0.00,OVC,,0.00,52.8,WeatherDisplay:10.37,2013-12-12 09:23:00,
2013-12-12 10:28:00,34.3,28.5,30.50,WNW,292,2.4,2.4,79,0.00,OVC,,0.00,53.8,WeatherDisplay:10.37,2013-12-12 09:28:00,
2013-12-12 10:33:00,34.3,28.8,30.50,West,270,2.3,2.3,80,0.00,OVC,,0.00,54.8,WeatherDisplay:10.37,2013-12-12 09:33:00,
2013-12-12 10:38:00,34.3,29.1,30.50,West,270,3.5,3.5,81,0.00,OVC,,0.00,55.8,WeatherDisplay:10.37,2013-12-12 09:38:00,
2013-12-12 10:43:00,34.3,29.4,30.50,WNW,292,2.3,2.3,82,0.00,OVC,,0.00,56.6,WeatherDisplay:10.37,2013-12-12 09:43:00,
2013-12-12 10:48:00,34.3,29.4,30.50,West,270,3.5,3.5,82,0.00,OVC,,0.00,57.4,WeatherDisplay:10.37,2013-12-12 09:48:00,
2013-12-12 10:54:00,34.3,29.7,30.50,West,270,3.5,3.6,83,0.00,OVC,,0.00,58.2,WeatherDisplay:10.37,2013-12-12 09:54:00,
2013-12-12 10:59:00,34.3,29.7,30.50,NNW,338,3.5,3.5,83,0.00,OVC,,0.00,58.9,WeatherDisplay:10.37,2013-12-12 09:59:00,
2013-12-12 11:04:00,34.3,30.0,30.50,NW,315,2.3,2.4,84,0.00,OVC,,0.00,59.6,WeatherDisplay:10.37,2013-12-12 10:04:00,
2013-12-12 11:09:00,34.3,29.7,30.48,SSW,202,2.9,2.9,83,0.00,OVC,,0.00,60.1,WeatherDisplay:10.37,2013-12-12 10:09:00,
2013-12-12 11:14:00,34.3,30.0,30.48,WNW,292,3.5,3.5,84,0.00,OVC,,0.00,60.6,WeatherDisplay:10.37,2013-12-12 10:14:00,
2013-12-12 11:19:00,34.3,29.7,30.48,West,270,0.0,0.0,83,0.00,OVC,,0.00,61.0,WeatherDisplay:10.37,2013-12-12 10:19:00,
2013-12-12 11:24:00,34.3,29.7,30.48,NW,315,0.0,0.0,83,0.00,OVC,,0.00,61.4,WeatherDisplay:10.37,2013-12-12 10:24:00,
2013-12-12 11:29:00,34.3,29.7,30.48,WNW,292,4.6,4.6,83,0.00,OVC,,0.00,61.7,WeatherDisplay:10.37,2013-12-12 10:29:00,
2013-12-12 11:34:00,34.3,29.7,30.48,NNW,338,2.6,2.6,83,0.00,OVC,,0.00,62.0,WeatherDisplay:10.37,2013-12-12 10:34:00,
2013-12-12 11:39:00,34.3,30.0,30.48,NNW,338,3.6,3.6,84,0.00,OVC,,0.00,62.2,WeatherDisplay:10.37,2013-12-12 10:39:00,
2013-12-12 11:44:00,34.3,30.0,30.48,NNW,338,3.5,3.5,84,0.00,OVC,,0.00,62.4,WeatherDisplay:10.37,2013-12-12 10:44:00,
2013-12-12 11:49:00,34.2,29.8,30.48,NNW,338,2.3,2.4,84,0.00,OVC,,0.00,62.5,WeatherDisplay:10.37,2013-12-12 10:49:00,
2013-12-12 11:54:00,34.2,29.8,30.48,NNW,338,4.6,4.6,84,0.00,OVC,,0.00,62.5,WeatherDisplay:10.37,2013-12-12 10:54:00,
2013-12-12 11:59:00,34.2,29.8,30.48,NW,315,3.5,3.5,84,0.00,OVC,,0.00,62.5,WeatherDisplay:10.37,2013-12-12 10:59:00,
2013-12-12 12:04:00,34.2,29.8,30.48,WNW,292,3.5,3.5,84,0.00,OVC,,0.00,62.4,WeatherDisplay:10.37,2013-12-12 11:04:00,
2013-12-12 12:09:00,34.2,29.8,30.44,WNW,292,3.5,3.5,84,0.00,OVC,,0.00,62.2,WeatherDisplay:10.37,2013-12-12 11:09:00,
2013-12-12 12:14:00,34.2,29.8,30.44,West,270,4.6,4.6,84,0.00,OVC,,0.00,62.0,WeatherDisplay:10.37,2013-12-12 11:14:00,
2013-12-12 12:19:00,34.2,30.1,30.44,NNW,338,3.5,3.5,85,0.00,OVC,,0.00,61.7,WeatherDisplay:10.37,2013-12-12 11:19:00,
2013-12-12 12:24:00,34.0,29.9,30.44,NNW,338,4.6,4.6,85,0.00,OVC,,0.00,61.4,WeatherDisplay:10.37,2013-12-12 11:24:00,
2013-12-12 12:29:00,34.0,29.7,30.44,WNW,292,2.3,2.3,84,0.00,OVC,,0.00,61.0,WeatherDisplay:10.37,2013-12-12 11:29:00,
2013-12-12 12:34:00,34.2,29.8,30.44,NW,315,2.3,2.3,84,0.00,OVC,,0.00,60.6,WeatherDisplay:10.37,2013-12-12 11:34:00,
2013-12-12 12:39:00,34.2,30.1,30.48,WNW,292,4.6,4.6,85,0.00,OVC,,0.00,60.1,WeatherDisplay:10.37,2013-12-12 11:39:00,
2013-12-12 12:44:00,34.0,29.9,30.48,WSW,248,3.8,3.8,85,0.00,OVC,,0.00,59.6,WeatherDisplay:10.37,2013-12-12 11:44:00,
2013-12-12 12:49:00,34.0,29.9,30.48,NNW,338,2.3,2.3,85,0.00,OVC,,0.00,58.9,WeatherDisplay:10.37,2013-12-12 11:49:00,
2013-12-12 12:54:00,34.0,30.2,30.48,NW,315,4.3,4.3,86,0.00,OVC,,0.00,58.2,WeatherDisplay:10.37,2013-12-12 11:54:00,
2013-12-12 12:59:00,34.0,29.9,30.48,West,270,3.1,3.1,85,0.00,OVC,,0.00,57.6,WeatherDisplay:10.37,2013-12-12 11:59:00,
2013-12-12 13:04:00,34.0,30.2,30.48,West,270,2.4,2.4,86,0.00,OVC,,0.00,56.8,WeatherDisplay:10.37,2013-12-12 12:04:00,
2013-12-12 13:09:00,34.0,30.2,30.50,NW,315,4.6,4.6,86,0.00,OVC,,0.00,55.9,WeatherDisplay:10.37,2013-12-12 12:09:00,
2013-12-12 13:14:00,33.8,30.1,30.50,WNW,292,2.3,2.3,86,0.00,OVC,,0.00,54.9,WeatherDisplay:10.37,2013-12-12 12:14:00,
2013-12-12 13:19:00,33.8,30.3,30.50,WSW,248,2.3,2.3,87,0.00,OVC,,0.00,54.0,WeatherDisplay:10.37,2013-12-12 12:19:00,
2013-12-12 13:24:00,33.8,30.6,30.50,West,270,3.5,3.5,88,0.00,OVC,,0.00,53.0,WeatherDisplay:10.37,2013-12-12 12:24:00,
2013-12-12 13:29:00,33.8,30.3,30.50,NNW,338,2.3,2.3,87,0.00,OVC,,0.00,52.0,WeatherDisplay:10.37,2013-12-12 12:29:00,
2013-12-12 13:34:00,33.8,30.1,30.50,NW,315,3.6,3.6,86,0.00,OVC,,0.00,50.8,WeatherDisplay:10.37,2013-12-12 12:34:00,
2013-12-12 13:39:00,33.8,30.1,30.48,West,270,2.3,2.3,86,0.00,OVC,,0.00,49.7,WeatherDisplay:10.37,2013-12-12 12:39:00,
2013-12-12 13:44:00,33.8,30.1,30.48,NNW,338,3.5,3.5,86,0.00,OVC,,0.00,48.5,WeatherDisplay:10.37,2013-12-12 12:44:00,
2013-12-12 13:49:00,33.8,30.1,30.48,NNW,338,0.0,0.0,86,0.00,OVC,,0.00,47.2,WeatherDisplay:10.37,2013-12-12 12:49:00,
2013-12-12 13:54:00,33.8,29.8,30.48,NNW,338,0.0,0.0,85,0.00,OVC,,0.00,46.0,WeatherDisplay:10.37,2013-12-12 12:54:00,
2013-12-12 13:59:00,33.8,29.8,30.48,NW,315,0.0,0.0,85,0.00,OVC,,0.00,44.5,WeatherDisplay:10.37,2013-12-12 12:59:00,
2013-12-12 14:04:00,33.8,30.1,30.48,NNW,338,2.3,2.3,86,0.00,OVC,,0.00,43.2,WeatherDisplay:10.37,2013-12-12 13:04:00,
2013-12-12 14:09:00,33.8,30.1,30.48,WNW,292,2.4,2.4,86,0.00,OVC,,0.00,41.7,WeatherDisplay:10.37,2013-12-12 13:09:00,
2013-12-12 14:14:00,33.8,30.1,30.48,NNW,338,0.0,0.0,86,0.00,OVC,,0.00,40.3,WeatherDisplay:10.37,2013-12-12 13:14:00,
2013-12-12 14:19:00,33.8,30.1,30.48,West,270,2.4,2.4,86,0.00,OVC,,0.00,38.8,WeatherDisplay:10.37,2013-12-12 13:19:00,
2013-12-12 14:24:00,33.8,30.3,30.44,West,270,2.3,2.3,87,0.00,OVC,,0.00,37.3,WeatherDisplay:10.37,2013-12-12 13:24:00,
2013-12-12 14:29:00,33.8,30.1,30.44,NNW,338,3.5,3.5,86,0.00,OVC,,0.00,35.6,WeatherDisplay:10.37,2013-12-12 13:29:00,
2013-12-12 14:34:00,33.8,30.1,30.44,NW,315,3.3,3.3,86,0.00,OVC,,0.00,34.0,WeatherDisplay:10.37,2013-12-12 13:34:00,
2013-12-12 14:39:00,33.8,30.1,30.44,WNW,292,2.4,2.4,86,0.00,OVC,,0.00,32.3,WeatherDisplay:10.37,2013-12-12 13:39:00,
2013-12-12 14:44:00,33.8,30.1,30.44,NNW,338,3.5,3.5,86,0.00,OVC,,0.00,30.5,WeatherDisplay:10.37,2013-12-12 13:44:00,
2013-12-12 14:49:00,33.6,29.9,30.44,NW,315,2.3,2.4,86,0.00,OVC,,0.00,28.9,WeatherDisplay:10.37,2013-12-12 13:49:00,
2013-12-12 14:54:00,33.6,29.9,30.44,WNW,292,4.6,4.6,86,0.00,OVC,,0.00,27.1,WeatherDisplay:10.37,2013-12-12 13:54:00,
2013-12-12 14:59:00,33.6,30.2,30.44,NNE,22,2.6,2.6,87,0.00,OVC,,0.00,25.2,WeatherDisplay:10.37,2013-12-12 13:59:00,
2013-12-12 15:04:00,33.6,30.2,30.44,WSW,248,4.6,4.6,87,0.00,OVC,,0.00,23.4,WeatherDisplay:10.37,2013-12-12 14:04:00,
2013-12-12 15:09:00,33.6,30.2,30.44,NNW,338,4.6,4.6,87,0.00,OVC,,0.00,21.6,WeatherDisplay:10.37,2013-12-12 14:09:00,
2013-12-12 15:14:00,33.4,29.7,30.44,NNW,338,4.6,4.6,86,0.00,OVC,,0.00,19.6,WeatherDisplay:10.37,2013-12-12 14:14:00,
2013-12-12 15:19:00,33.3,29.8,30.44,WNW,292,2.3,2.3,87,0.00,OVC,,0.00,17.7,WeatherDisplay:10.37,2013-12-12 14:19:00,
2013-12-12 15:24:00,33.3,29.8,30.42,West,270,2.3,2.3,87,0.00,OVC,,0.00,15.8,WeatherDisplay:10.37,2013-12-12 14:24:00,
2013-12-12 15:29:00,33.3,29.8,30.42,WNW,292,3.5,3.5,87,0.00,OVC,,0.00,13.9,WeatherDisplay:10.37,2013-12-12 14:29:00,
2013-12-12 15:34:00,33.3,30.1,30.42,WNW,292,4.6,4.6,88,0.00,OVC,,0.00,11.9,WeatherDisplay:10.37,2013-12-12 14:34:00,
2013-12-12 15:39:00,33.3,30.1,30.42,West,270,3.5,3.5,88,0.00,OVC,,0.00,9.7,WeatherDisplay:10.37,2013-12-12 14:39:00,
2013-12-12 15:44:00,33.3,30.4,30.42,WNW,292,3.5,3.5,89,0.00,OVC,,0.00,7.8,WeatherDisplay:10.37,2013-12-12 14:44:00,
2013-12-12 15:49:00,33.3,30.1,30.42,WNW,292,4.6,4.6,88,0.00,OVC,,0.00,5.8,WeatherDisplay:10.37,2013-12-12 14:49:00,
2013-12-12 15:54:00,33.1,29.9,30.44,West,270,3.5,3.5,88,0.00,OVC,,0.00,3.6,WeatherDisplay:10.37,2013-12-12 14:54:00,
2013-12-12 15:59:00,33.1,29.9,30.44,WNW,292,3.5,3.5,88,0.00,OVC,,0.00,1.6,WeatherDisplay:10.37,2013-12-12 14:59:00,
2013-12-12 16:04:00,33.1,29.9,30.44,WNW,292,2.3,2.3,88,0.00,CLR,,0.00,0.0,WeatherDisplay:10.37,2013-12-12 15:04:00,
2013-12-12 16:09:00,33.1,29.9,30.44,NNW,338,3.1,3.1,88,0.00,CLR,,0.00,0.0,WeatherDisplay:10.37,2013-12-12 15:09:00,
2013-12-12 16:14:00,33.1,29.9,30.44,NNE,22,4.6,4.6,88,0.00,CLR,,0.00,0.0,WeatherDisplay:10.37,2013-12-12 15:14:00,
2013-12-12 16:19:00,33.1,29.9,30.44,West,270,3.6,3.6,88,0.00,CLR,,0.00,0.0,WeatherDisplay:10.37,2013-12-12 15:19:00,
2013-12-12 16:24:00,33.1,29.9,30.44,WNW,292,3.5,3.5,88,0.00,CLR,,0.00,0.0,WeatherDisplay:10.37,2013-12-12 15:24:00,
2013-12-12 16:29:00,33.1,29.9,30.44,WNW,292,1.2,1.2,88,0.00,CLR,,0.00,0.0,WeatherDisplay:10.37,2013-12-12 15:29:00,
2013-12-12 16:34:00,32.9,29.7,30.44,NNE,22,1.2,2.0,88,0.00,CLR,,0.00,0.0,WeatherDisplay:10.37,2013-12-12 15:34:00,
2013-12-12 16:39:00,32.9,29.7,30.44,NNW,338,2.3,2.3,88,0.00,CLR,,0.00,0.0,WeatherDisplay:10.37,2013-12-12 15:39:00,
2013-12-12 16:44:00,32.9,29.7,30.44,NNW,338,2.3,2.3,88,0.00,CLR,,0.00,0.0,WeatherDisplay:10.37,2013-12-12 15:44:00,
2013-12-12 16:49:00,32.9,29.7,30.44,WNW,292,3.5,3.5,88,0.00,CLR,,0.00,0.0,WeatherDisplay:10.37,2013-12-12 15:49:00,
2013-12-12 16:54:00,33.1,29.9,30.42,WNW,292,1.2,0.0,88,0.00,CLR,,0.00,0.0,WeatherDisplay:10.37,2013-12-12 15:54:00,
2013-12-12 16:59:00,33.1,29.9,30.42,NNW,338,0.0,0.0,88,0.00,CLR,,0.00,0.0,WeatherDisplay:10.37,2013-12-12 15:59:00,
2013-12-12 17:04:00,33.1,29.9,30.42,WNW,292,0.0,0.0,88,0.00,CLR,,0.00,0.0,WeatherDisplay:10.37,2013-12-12 16:04:00,
2013-12-12 17:09:00,33.1,29.9,30.42,NNW,338,0.0,0.0,88,0.00,CLR,,0.00,0.0,WeatherDisplay:10.37,2013-12-12 16:09:00,
2013-12-12 17:14:00,33.1,29.9,30.42,NNE,22,1.4,0.0,88,0.00,CLR,,0.00,0.0,WeatherDisplay:10.37,2013-12-12 16:14:00,
2013-12-12 17:19:00,33.1,29.9,30.42,NW,315,4.6,4.6,88,0.00,CLR,,0.00,0.0,WeatherDisplay:10.37,2013-12-12 16:19:00,
2013-12-12 17:24:00,32.9,29.7,30.42,NNW,338,2.9,2.9,88,0.00,CLR,,0.00,0.0,WeatherDisplay:10.37,2013-12-12 16:24:00,
2013-12-12 17:29:00,32.9,30.0,30.42,NW,315,2.4,2.4,89,0.00,CLR,,0.00,0.0,WeatherDisplay:10.37,2013-12-12 16:29:00,
2013-12-12 17:34:00,32.9,30.0,30.42,North,0,2.3,2.3,89,0.00,CLR,,0.00,0.0,WeatherDisplay:10.37,2013-12-12 16:34:00,
2013-12-12 17:39:00,32.9,30.0,30.42,NW,315,4.6,4.6,89,0.00,CLR,,0.00,0.0,WeatherDisplay:10.37,2013-12-12 16:39:00,
2013-12-12 17:44:00,32.9,30.0,30.42,WNW,292,4.6,4.6,89,0.00,CLR,,0.00,0.0,WeatherDisplay:10.37,2013-12-12 16:44:00,
2013-12-12 17:49:00,32.9,30.0,30.42,NNE,22,2.3,2.3,89,0.00,CLR,,0.00,0.0,WeatherDisplay:10.37,2013-12-12 16:49:00,
2013-12-12 17:54:00,32.9,30.0,30.42,NNE,22,4.6,4.6,89,0.00,CLR,,0.00,0.0,WeatherDisplay:10.37,2013-12-12 16:54:00,
2013-12-12 17:59:00,32.9,30.0,30.42,NE,45,3.1,3.1,89,0.00,CLR,,0.00,0.0,WeatherDisplay:10.37,2013-12-12 16:59:00,
2013-12-12 18:04:00,32.9,30.0,30.42,NNE,22,3.5,3.5,89,0.00,CLR,,0.00,0.0,WeatherDisplay:10.37,2013-12-12 17:04:00,
2013-12-12 18:09:00,32.7,29.8,30.42,East,90,2.3,2.3,89,0.00,CLR,,0.00,0.0,WeatherDisplay:10.37,2013-12-12 17:09:00,
2013-12-12 18:14:00,32.7,29.8,30.42,WNW,292,0.0,0.0,89,0.00,CLR,,0.00,0.0,WeatherDisplay:10.37,2013-12-12 17:14:00,
2013-12-12 18:19:00,32.9,30.0,30.42,SW,225,0.0,0.0,89,0.00,CLR,,0.00,0.0,WeatherDisplay:10.37,2013-12-12 17:19:00,
2013-12-12 18:24:00,32.9,30.0,30.42,SW,225,0.0,0.0,89,0.00,CLR,,0.00,0.0,WeatherDisplay:10.37,2013-12-12 17:24:00,
2013-12-12 18:29:00,32.9,30.0,30.42,WSW,248,0.0,0.0,89,0.00,CLR,,0.00,0.0,WeatherDisplay:10.37,2013-12-12 17:29:00,
2013-12-12 18:34:00,32.9,30.0,30.42,West,270,0.0,0.0,89,0.00,CLR,,0.00,0.0,WeatherDisplay:10.37,2013-12-12 17:34:00,
2013-12-12 18:39:00,32.9,30.0,30.42,WNW,292,2.3,2.3,89,0.00,CLR,,0.00,0.0,WeatherDisplay:10.37,2013-12-12 17:39:00,
2013-12-12 18:44:00,32.9,30.3,30.42,WSW,248,2.3,0.0,90,0.00,CLR,,0.00,0.0,WeatherDisplay:10.37,2013-12-12 17:44:00,
2013-12-12 18:49:00,32.9,30.3,30.42,West,270,2.3,2.3,90,0.00,CLR,,0.00,0.0,WeatherDisplay:10.37,2013-12-12 17:49:00,
2013-12-12 18:54:00,32.9,30.3,30.39,WNW,292,1.2,1.2,90,0.00,CLR,,0.00,0.0,WeatherDisplay:10.37,2013-12-12 17:54:00,
2013-12-12 18:59:00,32.9,30.3,30.39,WNW,292,0.0,0.0,90,0.00,CLR,,0.00,0.0,WeatherDisplay:10.37,2013-12-12 17:59:00,
2013-12-12 19:04:00,32.9,30.0,30.39,WNW,292,0.0,0.0,89,0.00,CLR,,0.00,0.0,WeatherDisplay:10.37,2013-12-12 18:04:00,
2013-12-12 19:09:00,32.9,30.0,30.42,WNW,292,0.0,0.0,89,0.00,CLR,,0.00,0.0,WeatherDisplay:10.37,2013-12-12 18:09:00,
2013-12-12 19:14:00,32.9,30.0,30.42,NW,315,0.0,0.0,89,0.00,CLR,,0.00,0.0,WeatherDisplay:10.37,2013-12-12 18:14:00,
2013-12-12 19:19:00,32.9,30.0,30.42,WNW,292,1.2,1.2,89,0.00,CLR,,0.00,0.0,WeatherDisplay:10.37,2013-12-12 18:19:00,
2013-12-12 19:24:00,32.9,30.3,30.39,West,270,3.5,3.5,90,0.00,CLR,,0.00,0.0,WeatherDisplay:10.37,2013-12-12 18:24:00,
2013-12-12 19:29:00,32.7,30.1,30.39,WNW,292,3.5,3.5,90,0.00,CLR,,0.00,0.0,WeatherDisplay:10.37,2013-12-12 18:29:00,
2013-12-12 19:34:00,32.7,30.1,30.39,North,0,2.3,2.3,90,0.00,CLR,,0.00,0.0,WeatherDisplay:10.37,2013-12-12 18:34:00,
2013-12-12 19:39:00,32.7,30.1,30.39,NNW,338,2.3,2.3,90,0.00,CLR,,0.00,0.0,WeatherDisplay:10.37,2013-12-12 18:39:00,
2013-12-12 19:44:00,32.7,30.1,30.39,NW,315,3.1,3.1,90,0.00,CLR,,0.00,0.0,WeatherDisplay:10.37,2013-12-12 18:44:00,
2013-12-12 19:49:00,32.7,30.1,30.39,WNW,292,2.3,0.0,90,0.00,CLR,,0.00,0.0,WeatherDisplay:10.37,2013-12-12 18:49:00,
2013-12-12 19:54:00,32.7,30.1,30.39,WNW,292,0.0,0.0,90,0.00,CLR,,0.00,0.0,WeatherDisplay:10.37,2013-12-12 18:54:00,
2013-12-12 19:59:00,32.7,30.1,30.39,NNW,338,0.0,0.0,90,0.00,CLR,,0.00,0.0,WeatherDisplay:10.37,2013-12-12 18:59:00,
2013-12-12 20:04:00,32.7,30.1,30.39,West,270,0.0,0.0,90,0.00,CLR,,0.00,0.0,WeatherDisplay:10.37,2013-12-12 19:04:00,
2013-12-12 20:09:00,32.7,30.4,30.44,SSE,158,3.5,3.5,91,0.00,CLR,,0.00,0.0,WeatherDisplay:10.37,2013-12-12 19:09:00,
2013-12-12 20:14:00,32.7,30.7,30.44,WSW,248,4.6,4.6,92,0.00,CLR,,0.00,0.0,WeatherDisplay:10.37,2013-12-12 19:14:00,
2013-12-12 20:19:00,32.7,30.9,30.44,WSW,248,3.5,3.5,93,0.00,CLR,,0.00,0.0,WeatherDisplay:10.37,2013-12-12 19:19:00,
2013-12-12 20:24:00,32.7,31.2,30.44,South,180,2.3,0.0,94,0.00,CLR,,0.00,0.0,WeatherDisplay:10.37,2013-12-12 19:24:00,
2013-12-12 20:29:00,32.7,30.9,30.44,SW,225,0.0,0.0,93,0.00,CLR,,0.00,0.0,WeatherDisplay:10.37,2013-12-12 19:29:00,
2013-12-12 20:34:00,32.7,30.9,30.44,NNE,22,0.0,0.0,93,0.00,CLR,,0.00,0.0,WeatherDisplay:10.37,2013-12-12 19:34:00,
2013-12-12 20:39:00,32.7,30.9,30.44,NW,315,2.3,2.3,93,0.00,CLR,,0.00,0.0,WeatherDisplay:10.37,2013-12-12 19:39:00,
2013-12-12 20:44:00,32.7,30.7,30.44,West,270,0.0,0.0,92,0.00,CLR,,0.00,0.0,WeatherDisplay:10.37,2013-12-12 19:44:00,
2013-12-12 20:49:00,32.7,30.7,30.44,WNW,292,0.0,0.0,92,0.00,CLR,,0.00,0.0,WeatherDisplay:10.37,2013-12-12 19:49:00,
2013-12-12 20:54:00,32.7,30.7,30.44,WNW,292,0.0,0.0,92,0.00,CLR,,0.00,0.0,WeatherDisplay:10.37,2013-12-12 19:54:00,
2013-12-12 20:59:00,32.7,30.7,30.44,West,270,0.0,0.0,92,0.00,CLR,,0.00,0.0,WeatherDisplay:10.37,2013-12-12 19:59:00,
2013-12-12 21:04:00,32.7,30.7,30.44,WNW,292,3.8,3.8,92,0.00,CLR,,0.00,0.0,WeatherDisplay:10.37,2013-12-12 20:04:00,
2013-12-12 21:09:00,32.7,30.9,30.42,WSW,248,2.3,2.3,93,0.00,CLR,,0.00,0.0,WeatherDisplay:10.37,2013-12-12 20:09:00,
2013-12-12 21:14:00,32.7,30.9,30.42,WNW,292,0.0,0.0,93,0.00,CLR,,0.00,0.0,WeatherDisplay:10.37,2013-12-12 20:14:00,
2013-12-12 21:19:00,32.7,30.9,30.42,WNW,292,0.0,0.0,93,0.00,CLR,,0.00,0.0,WeatherDisplay:10.37,2013-12-12 20:19:00,
2013-12-12 21:24:00,32.7,30.9,30.42,NNW,338,2.9,2.9,93,0.00,CLR,,0.00,0.0,WeatherDisplay:10.37,2013-12-12 20:24:00,
2013-12-12 21:29:00,32.7,30.9,30.42,NW,315,3.5,3.5,93,0.00,CLR,,0.00,0.0,WeatherDisplay:10.37,2013-12-12 20:29:00,
2013-12-12 21:34:00,32.7,30.9,30.42,West,270,2.3,2.3,93,0.00,CLR,,0.00,0.0,WeatherDisplay:10.37,2013-12-12 20:34:00,
2013-12-12 21:39:00,32.5,30.7,30.42,WSW,248,1.2,0.0,93,0.00,CLR,,0.00,0.0,WeatherDisplay:10.37,2013-12-12 20:39:00,
2013-12-12 21:44:00,32.5,30.7,30.42,WNW,292,0.0,0.0,93,0.00,CLR,,0.00,0.0,WeatherDisplay:10.37,2013-12-12 20:44:00,
2013-12-12 21:49:00,32.5,30.7,30.42,WNW,292,2.9,2.9,93,0.00,CLR,,0.00,0.0,WeatherDisplay:10.37,2013-12-12 20:49:00,